[[{"header":{"parameterUnit":"m.s-1","parameterCategory":1,"la1":30.2991,"la2":30.254,"lo1":-89.0895,"lo2":-89.0444,"dy":0.0017,"dx":0.0017,"nx":28,"ny":28,"refTime":"2024-05-23T03:00:00:Z","depth":0,"parameterNumber":2,"parameterNumberName":"U-component_of_WINDS"},"data":[0,0,0,0,0,0,0,0,0,0,0,0,0,0,0,0,0,0,0,0,0,0,0,0,0,0,0,0,0,0,0,0,0,0,0,0,0,0,0,0,0,0,0,0,0,0,0,0,0,0,0,0,0,0,0,0,0,0,0.4822,0.4823,0,0.4895,0.4895,0.4896,0.494,0.494,0.494,0.4941,0.5015,0.5016,0.5018,0,0,0,0,0,0,0,0,0,0,0,0,0,0.4722,0.4723,0.4822,0.4823,0.4824,0.4895,0.4896,0.4897,0.494,0.494,0.494,0.4941,0.5014,0.5016,0.5018,0,0,0,0,0,0,0,0,0,0,0,0,0,0.4777,0.4724,0.4822,0.4854,0.4858,0.4894,0.4896,0.4897,0.494,0.494,0.4941,0.4941,0.5013,0.5016,0.5019,0.5029,0,0,0.5027,0.5028,0,0,0,0,0,0,0,0,0.4774,0.4781,0.4848,0.4852,0.4856,0.4909,0.4887,0.4941,0.494,0.4909,0.4941,0.4941,0.4979,0.4985,0.4998,0.5032,0.5035,0.5027,0.5029,0.503,0.5031,0,0,0,0,0,0,0,0.477,0.4778,0.4851,0.4849,0.4854,0.4865,0.4873,0.4898,0.4941,0.4911,0.4915,0.4923,0.4981,0.4995,0.5,0.5037,0.5027,0.5029,0.5031,0.5032,0.5085,0.5085,0,0,0,0,0,0,0.4761,0.4774,0.4848,0.4853,0.4815,0.4867,0.4876,0.4891,0.4941,0.4949,0.4922,0.4925,0.499,0.4996,0.5002,0.5019,0.503,0.5032,0.5034,0.5086,0.5085,0.5085,0,0,0,0,0,0,0.4759,0.4767,0.4846,0.4815,0.4825,0.4868,0.4885,0.4893,0.4906,0.4949,0.4957,0.4928,0.4991,0.4999,0.5022,0.5022,0.5033,0.5036,0.5086,0.5086,0.5085,0.5051,0,0,0,0,0,0,0.4755,0.4766,0.477,0.4814,0.4827,0.4864,0.4885,0.4894,0.4911,0.4914,0.4957,0.4964,0.4992,0.5018,0.5025,0.5026,0.5038,0.5086,0.5086,0.5085,0.5053,0.505,0.5048,0,0,0,0,0,0.4752,0.4757,0.477,0.4779,0.4833,0.4864,0.4871,0.4902,0.4911,0.4915,0.4943,0.4963,0.5021,0.502,0.5028,0.503,0.5086,0.5086,0.5085,0.5054,0.5051,0.5048,0,0,0,0,0,0,0.4711,0.4763,0.4778,0.4798,0.4826,0.4871,0.4878,0.4897,0.4923,0.4926,0.4963,0.4972,0.4993,0.5014,0.5012,0.5044,0.5056,0.5057,0.5029,0.5026,0.5024,0.5019,0.504,0,0,0,0,0,0.4704,0.4725,0.477,0.4783,0.4796,0.4835,0.4849,0.4871,0.4902,0.4914,0.4943,0.4972,0.4997,0.5013,0.5038,0.5056,0.5067,0.5061,0.5059,0.5056,0.5057,0.507,0.5068,0.5084,0.5084,0.5084,0,0,0.469,0.4722,0.4732,0.4776,0.48,0.4821,0.4844,0.4865,0.4882,0.4917,0.4942,0.4964,0.4999,0.5021,0.5031,0.5039,0.5055,0.5056,0.5054,0.5056,0.5069,0.5068,0.5066,0.5084,0.5084,0.5084,0,0,0.4677,0.4702,0.4717,0.4741,0.4778,0.4804,0.4807,0.485,0.4866,0.4892,0.4919,0.4939,0.4981,0.5005,0.5023,0.502,0.504,0.5027,0.5014,0.5026,0.5025,0.5024,0.5024,0.5024,0.5028,0.5028,0.5028,0,0.4655,0.4688,0.4721,0.4742,0.476,0.4794,0.481,0.4831,0.4874,0.4887,0.4894,0.4949,0.4974,0.5003,0.5002,0.5015,0.5021,0.5023,0.5022,0.5022,0.5021,0.5022,0.5022,0.5026,0.5026,0.5026,0.5027,0,0.466,0.4683,0.469,0.4732,0.4752,0.4769,0.4806,0.4822,0.4842,0.4867,0.4893,0.4925,0.4958,0.4967,0.4986,0.4998,0.5002,0.5015,0.5028,0.5018,0.5019,0.502,0.5024,0.5024,0.5025,0.5025,0,0,0.4622,0.4684,0.4686,0.4706,0.475,0.4768,0.4788,0.4821,0.4834,0.4863,0.4881,0.4916,0.493,0.495,0.4973,0.4983,0.498,0.4995,0.4997,0.4992,0.4997,0.4987,0.4987,0.4993,0.4994,0.4994,0.4995,0,0.4616,0.4653,0.4685,0.471,0.4733,0.4765,0.4783,0.4812,0.4836,0.4859,0.4885,0.491,0.4925,0.4938,0.4949,0.4978,0.4982,0.4978,0.5011,0.5012,0.5002,0.4987,0.4977,0.4976,0.4995,0.4995,0.4995,0,0.4613,0.4642,0.467,0.4714,0.4724,0.4739,0.4773,0.4794,0.4828,0.4845,0.4868,0.4892,0.4915,0.4926,0.4958,0.4955,0.4971,0.4987,0.4988,0.4992,0.5003,0.4993,0.4976,0.4977,0.4996,0.4996,0.4996,0,0.4584,0.463,0.4653,0.4669,0.472,0.473,0.4752,0.4786,0.4805,0.4834,0.4847,0.4878,0.4895,0.4919,0.4951,0.4955,0.4981,0.4994,0.4996,0.4995,0.5,0.5,0.4987,0.5009,0.5009,0.5009,0.5009,0,0.4574,0.4591,0.4641,0.4656,0.4675,0.4712,0.473,0.4754,0.4785,0.4805,0.4835,0.4853,0.4894,0.4917,0.4943,0.4967,0.4974,0.4989,0.4996,0.4987,0.4985,0.4998,0.4999,0.5009,0.5009,0.5009,0.5009,0,0.4545,0.458,0.4608,0.4654,0.4666,0.4679,0.4719,0.4734,0.4761,0.4786,0.4794,0.4835,0.4864,0.4898,0.4938,0.4955,0.4978,0.4987,0.4966,0.497,0.4971,0.4971,0.4967,0.4969,0.4988,0.4988,0.4988,0,0.4537,0.4551,0.4599,0.4615,0.4636,0.4661,0.4681,0.4717,0.4736,0.4777,0.4788,0.4819,0.4846,0.4892,0.4925,0.4956,0.4967,0.4964,0.4972,0.4963,0.4968,0.4968,0.497,0.4961,0.4961,0.4961,0.496,0,0.4519,0.4536,0.4563,0.4597,0.4619,0.4647,0.4676,0.4687,0.4729,0.4749,0.478,0.4801,0.4843,0.4874,0.4909,0.4932,0.4954,0.4958,0.496,0.4952,0.494,0.4947,0.4961,0.4958,0.4958,0.4958,0.4958,0.4958,0.4502,0.4516,0.4553,0.4582,0.4608,0.4635,0.4653,0.4682,0.4708,0.4745,0.4765,0.4795,0.483,0.4881,0.4902,0.4927,0.4934,0.4937,0.4939,0.4939,0.4937,0.4935,0.4933,0.4934,0.4934,0.4934,0.4934,0,0.4487,0.4513,0.4539,0.458,0.4603,0.4622,0.4655,0.4673,0.47,0.4731,0.4758,0.4794,0.4824,0.4861,0.4894,0.4907,0.4918,0.4914,0.4914,0.4919,0.4928,0.4923,0.4905,0.4905,0.4905,0.4905,0.4905,0.4905,0.4482,0.4508,0.4529,0.4568,0.4594,0.4625,0.4642,0.4667,0.4693,0.4732,0.4758,0.4781,0.4815,0.4851,0.4881,0.489,0.4902,0.4896,0.4909,0.4916,0.4919,0.4921,0.4917,0.4898,0.4898,0.4898,0.4898,0.4898]},{"header":{"parameterUnit":"m.s-1","parameterCategory":1,"la1":30.2991,"la2":30.254,"lo1":-89.0895,"lo2":-89.0444,"dy":0.0017,"dx":0.0017,"nx":28,"ny":28,"refTime":"2024-05-23T03:00:00:Z","depth":0,"parameterNumber":3,"parameterNumberName":"V-component_of_WINDS"},"data":[0,0,0,0,0,0,0,0,0,0,0,0,0,0,0,0,0,0,0,0,0,0,0,0,0,0,0,0,0,0,0,0,0,0,0,0,0,0,0,0,0,0,0,0,0,0,0,0,0,0,0,0,0,0,0,0,0,0,4.7598,4.7597,0,4.7541,4.7541,4.754,4.751,4.751,4.751,4.751,4.7445,4.7443,4.7442,0,0,0,0,0,0,0,0,0,0,0,0,0,4.7674,4.7673,4.7598,4.7597,4.7597,4.7541,4.7541,4.754,4.751,4.751,4.751,4.751,4.7446,4.7444,4.7442,0,0,0,0,0,0,0,0,0,0,0,0,0,4.7632,4.7673,4.7598,4.7575,4.7573,4.7542,4.7541,4.754,4.751,4.751,4.751,4.751,4.7446,4.7444,4.7441,4.7426,0,0,4.7433,4.7432,0,0,0,0,0,0,0,0,4.7634,4.7629,4.7579,4.7577,4.7574,4.7533,4.7544,4.7501,4.751,4.7534,4.751,4.751,4.7474,4.7469,4.7458,4.7423,4.742,4.7433,4.7432,4.7431,4.743,0,0,0,0,0,0,0,4.7637,4.7631,4.7575,4.7579,4.7575,4.7566,4.756,4.7535,4.7504,4.7532,4.7529,4.7523,4.7472,4.7461,4.7456,4.7419,4.7433,4.7431,4.7429,4.7428,4.7369,4.7369,0,0,0,0,0,0,4.7645,4.7634,4.7577,4.7574,4.7605,4.7565,4.7558,4.7546,4.7505,4.7499,4.7524,4.7522,4.7465,4.746,4.7454,4.7434,4.7431,4.7428,4.7427,4.7369,4.7369,4.7369,0,0,0,0,0,0,4.7646,4.764,4.7579,4.7603,4.7595,4.7563,4.755,4.7545,4.7533,4.7499,4.7492,4.7518,4.7465,4.7458,4.7434,4.7431,4.7427,4.7425,4.7369,4.7369,4.7369,4.7394,0,0,0,0,0,0,4.7649,4.7641,4.7636,4.7603,4.7594,4.7562,4.755,4.7544,4.753,4.7528,4.7492,4.7486,4.7464,4.7438,4.7431,4.7428,4.7423,4.7369,4.7369,4.7369,4.7393,4.7395,4.7396,0,0,0,0,0,4.7652,4.7644,4.7636,4.7629,4.7588,4.7562,4.7556,4.7534,4.753,4.7524,4.7502,4.7487,4.7433,4.7436,4.7428,4.7424,4.7369,4.7369,4.7369,4.7393,4.7394,4.7396,0,0,0,0,0,0,4.7675,4.7639,4.763,4.7612,4.7591,4.7557,4.7549,4.7537,4.7514,4.7513,4.7484,4.7476,4.7455,4.7437,4.7441,4.7407,4.7399,4.7398,4.742,4.7421,4.7423,4.7427,4.7421,0,0,0,0,0,4.7678,4.7663,4.7631,4.7618,4.7608,4.7581,4.7569,4.7554,4.7529,4.752,4.7495,4.7471,4.7448,4.7434,4.7411,4.739,4.7382,4.7383,4.7385,4.7386,4.7385,4.7373,4.7373,4.7369,4.7369,4.7369,0,0,4.7684,4.7663,4.7654,4.7622,4.7604,4.7587,4.7573,4.7555,4.7542,4.7516,4.7493,4.7474,4.7444,4.7423,4.7412,4.7407,4.7385,4.7386,4.7388,4.7386,4.7373,4.7373,4.7374,4.7369,4.7369,4.7369,0,0,4.7686,4.7669,4.7657,4.7639,4.7613,4.7595,4.7592,4.756,4.7548,4.7525,4.7505,4.7487,4.7449,4.7429,4.7414,4.7409,4.7394,4.7402,4.741,4.7398,4.7398,4.7399,4.7397,4.7397,4.7401,4.7401,4.7401,0,4.7696,4.7672,4.7651,4.7635,4.7621,4.76,4.7586,4.7569,4.7535,4.7525,4.7521,4.7473,4.7452,4.7425,4.7424,4.7412,4.7407,4.7406,4.7401,4.74,4.74,4.7398,4.7398,4.7403,4.7402,4.7402,4.7402,0,4.7686,4.7669,4.7662,4.7633,4.7618,4.7603,4.7578,4.7565,4.7551,4.7533,4.751,4.7483,4.7455,4.7447,4.7432,4.7418,4.7416,4.7407,4.7398,4.7402,4.74,4.7399,4.7404,4.7404,4.7403,4.7403,0,0,4.77,4.7662,4.7659,4.7646,4.7615,4.7601,4.7584,4.7559,4.7549,4.7526,4.7511,4.7479,4.7471,4.7453,4.7436,4.7426,4.7424,4.7417,4.7416,4.742,4.7406,4.7414,4.7414,4.7414,4.7414,4.7414,4.7409,0,4.7698,4.7671,4.7652,4.763,4.7614,4.7594,4.7579,4.7558,4.7541,4.7523,4.7502,4.7481,4.7471,4.7461,4.745,4.7427,4.7421,4.7427,4.7398,4.7397,4.7407,4.7412,4.742,4.7417,4.7408,4.7408,4.7408,0,4.7692,4.7674,4.7652,4.7624,4.7616,4.7604,4.7579,4.7563,4.7538,4.7526,4.7507,4.749,4.747,4.7464,4.7435,4.7439,4.7426,4.7413,4.7413,4.7409,4.7403,4.7409,4.7415,4.7415,4.7406,4.7406,4.7406,0,4.7706,4.7674,4.7657,4.7646,4.7613,4.7605,4.759,4.7566,4.7552,4.753,4.752,4.7495,4.7481,4.7461,4.7437,4.7435,4.741,4.7402,4.7398,4.7399,4.7394,4.7395,4.7398,4.7386,4.7386,4.7386,4.7386,0,4.7705,4.7693,4.7663,4.7652,4.7637,4.7615,4.7599,4.7583,4.7561,4.7545,4.7525,4.751,4.7479,4.746,4.7441,4.742,4.7413,4.7402,4.7397,4.7404,4.7405,4.7395,4.7394,4.7386,4.7386,4.7386,4.7386,0,4.7717,4.7697,4.7677,4.7648,4.7641,4.7631,4.7605,4.7593,4.7575,4.7556,4.7549,4.752,4.7497,4.7471,4.7438,4.7425,4.7405,4.7398,4.7415,4.7412,4.741,4.741,4.7407,4.7405,4.7394,4.7394,4.7394,0,4.7719,4.7709,4.768,4.7669,4.7656,4.7639,4.7626,4.7602,4.7589,4.756,4.7551,4.7527,4.7507,4.747,4.7444,4.7419,4.7411,4.7411,4.7407,4.7414,4.7411,4.7412,4.741,4.7413,4.7413,4.7413,4.7413,0,4.7723,4.7714,4.7697,4.7676,4.7662,4.7644,4.7625,4.7617,4.7589,4.7575,4.7552,4.7537,4.7505,4.748,4.7452,4.7434,4.7419,4.7415,4.7413,4.742,4.743,4.7425,4.7419,4.7415,4.7415,4.7415,4.7415,4.7415,4.7729,4.772,4.7699,4.768,4.7664,4.7647,4.7635,4.7617,4.7598,4.7572,4.7559,4.7536,4.7511,4.7472,4.7455,4.7435,4.743,4.7427,4.7426,4.7426,4.7428,4.7434,4.743,4.743,4.743,4.743,4.743,0,4.7733,4.7718,4.7702,4.7678,4.7663,4.7652,4.7631,4.7618,4.76,4.7579,4.756,4.7534,4.751,4.7484,4.7458,4.7448,4.744,4.7442,4.7442,4.7438,4.7434,4.7438,4.7448,4.7448,4.7448,4.7448,4.7448,4.7448,4.7733,4.7717,4.7705,4.768,4.7665,4.7645,4.7634,4.7618,4.7601,4.7574,4.7555,4.7539,4.7515,4.7488,4.7465,4.7458,4.7449,4.7453,4.7443,4.744,4.7438,4.7437,4.7441,4.7451,4.7451,4.7449,4.7449,4.7449]}]]